Vorticity
20 28 32 24 22 17 17 16 17 28 15 4 11 18 16 18 16 14 4 9 12 6 1 0 28 4 2 6 16 10 23 3 6 18 -3 9 9 12 9 -10 13 7 -1 25 18 5 20 48 9 8 -25 1 -1 4
4 7 37 36 33 29 26 27 5 2 11 14 30 27 27 18 16 14 13 13 15 15 3 39 -12 -34 24 30 21 18 7 18 -5 17 12 29 -2 5 3 -7 28 12 -16 -2 1 20 -26 -3 -16 -16 1 -3 -0 -5
22 24 20 14 10 5 3 2 14 9 20 27 22 26 24 21 26 18 8 9 17 15 10 12 3 23 -0 16 29 13 23 -9 -8 -10 -5 13 -5 26 11 10 1 7 6 4 5 13 12 24 8 -1 1 2 13 -0
11 25 17 19 20 17 16 19 26 11 13 13 12 21 9 9 13 13 15 15 18 12 1 26 43 12 39 22 14 11 10 22 25 12 14 2 11 13 5 0 2 12 14 8 7 10 7 3 8 25 6 7 16 17
11 13 13 17 14 16 17 16 11 8 8 17 29 28 22 13 15 10 20 17 13 -14 62 -16 29 40 17 33 13 4 3 2 8 16 -11 40 11 -15 9 8 16 14 12 14 4 2 1 3 -1 -1 -9 -11 9 -1
11 17 18 22 21 17 14 14 13 17 15 9 5 5 13 23 12 16 6 10 21 26 -41 5 59 22 40 -10 -24 22 17 9 3 4 2 20 -20 33 16 18 11 1 7 17 9 17 13 10 5 2 4 16 19 12
13 18 16 27 30 22 20 15 19 25 19 25 23 16 7 8 24 12 -8 23 8 4 17 17 19 -10 -1 60 3 14 21 6 16 18 5 -18 22 27 -19 -18 -6 6 -8 -2 12 11 17 17 25 20 27 15 13 13
18 19 35 23 27 29 25 21 17 18 25 21 19 14 20 8 23 3 52 49 35 11 8 2 16 16 30 -11 25 11 -4 30 12 41 -24 30 28 -13 13 12 14 9 7 12 5 6 10 10 26 27 -8 1 5 12
9 -2 25 13 15 37 29 24 22 26 23 29 23 21 15 8 7 32 -35 -5 8 15 -12 15 8 6 27 31 14 26 14 9 -0 9 6 1 30 -3 13 12 9 12 9 4 16 31 15 9 -1 -4 4 8 6 11
10 18 -0 12 21 67 30 17 43 33 33 33 18 17 11 8 9 47 16 -7 17 26 10 -7 14 -12 34 14 14 14 35 2 23 36 -4 -2 12 5 -7 -4 -5 -3 3 7 19 18 13 10 12 20 24 18 13 16
4 14 4 18 12 3 29 21 13 28 30 7 -17 54 20 18 -29 -29 5 5 8 15 36 8 -3 2 11 42 14 8 7 8 8 15 -7 23 36 17 12 13 28 15 28 11 8 7 14 11 12 7 4 10 15 15
13 9 -2 10 34 26 14 26 24 16 15 5 -6 -5 -11 -6 5 17 24 8 20 7 13 24 26 21 40 44 19 20 -2 4 8 36 -6 17 6 17 14 8 9 11 15 12 19 24 16 13 11 19 18 14 15 13
4 -4 16 6 13 21 45 29 23 28 33 18 -0 -43 -5 5 11 10 17 17 8 13 17 -4 22 9 30 -4 18 6 9 17 25 -2 11 13 17 11 7 12 15 15 12 14 22 21 23 25 21 18 21 21 21 23
9 7 5 22 23 -25 12 -14 3 2 -7 3 -17 17 3 14 15 19 10 14 12 23 24 7 3 12 7 -2 18 6 25 5 -3 10 12 14 12 10 15 17 17 18 22 22 23 25 26 25 27 29 27 23 21 22
8 11 3 15 2 -16 -12 -5 -6 6 21 13 8 15 19 35 26 16 13 8 21 9 12 9 -3 16 9 4 5 11 9 11 14 16 20 14 13 15 18 20 23 25 26 24 22 22 22 21 21 20 15 12 9 10
11 13 11 13 16 3 -2 -13 -7 3 24 14 28 39 15 8 14 10 12 11 14 18 15 -1 4 11 23 3 12 10 9 16 17 26 20 19 21 23 26 25 19 13 9 7 6 7 6 6 5 5 5 5 4 3
7 10 11 14 9 6 13 1 -6 16 19 19 17 9 11 12 13 9 1 16 11 10 5 -11 9 14 20 12 12 13 9 30 25 20 22 22 19 12 7 5 5 5 5 5 5 4 3 3 3 4 4 5 5 6
16 8 11 9 9 5 12 12 10 23 22 7 8 7 8 9 12 16 9 12 11 14 -1 -7 10 7 11 13 21 28 21 20 20 19 11 7 5 4 5 5 5 4 4 4 4 4 5 5 6 5 6 7 8 8
10 15 14 12 13 8 5 15 18 20 19 13 10 11 11 9 9 11 15 21 13 11 11 14 6 19 17 40 36 17 19 17 12 6 4 3 4 5 5 5 5 4 4 4 5 6 6 7 7 8 8 8 8 8
8 7 8 17 9 4 3 9 16 14 10 8 9 13 21 19 19 10 13 17 27 25 10 38 53 36 21 20 20 15 10 6 4 6 6 5 5 5 4 4 4 5 5 5 7 8 8 8 8 8 9 9 9 9
22 18 17 8 11 6 12 5 16 2 1 23 24 29 22 29 47 41 13 10 8 53 19 12 12 10 10 6 5 5 4 3 5 5 6 6 5 5 6 6 5 7 8 7 7 8 9 9 10 11 11 11 11 12
32 30 32 19 9 -2 11 17 23 25 40 15 15 15 22 32 38 45 48 35 18 10 4 8 7 5 4 3 3 3 5 6 6 5 7 6 5 6 7 7 7 7 10 12 14 15 15 14 13 13 12 13 14 16
17 24 23 16 0 9 15 5 -6 5 24 16 6 -1 3 -2 -4 -31 8 5 4 5 6 5 4 3 4 5 6 6 5 6 5 5 7 9 9 10 11 12 13 14 14 14 13 12 12 11 11 12 13 16 18 18
17 11 -2 4 15 33 4 21 37 20 12 4 7 -6 -9 13 32 10 6 3 5 3 4 5 4 6 6 6 4 6 8 9 9 8 6 7 8 10 12 12 12 12 11 10 10 10 12 12 13 17 18 15 12 10
9 6 18 26 10 21 18 15 27 2 8 5 -11 16 12 -6 6 11 8 5 4 5 5 5 6 6 6 6 6 5 3 4 4 6 8 11 12 14 14 14 13 12 12 13 15 15 15 17 17 14 11 9 9 11
8 10 15 35 21 8 28 4 18 4 3 -5 20 13 12 -15 3 24 8 5 5 5 5 6 6 5 5 4 4 6 7 9 10 12 11 14 12 12 12 13 13 14 15 16 16 16 15 14 13 11 10 11 12 12
22 39 26 16 26 17 4 23 8 -3 -12 17 30 -20 1 13 11 32 7 4 5 5 5 4 4 5 5 7 8 9 10 10 11 12 14 15 14 15 17 17 18 16 16 15 15 15 14 11 11 12 13 12 11 11
14 5 17 20 10 18 14 -2 -9 -2 17 29 -22 4 3 17 40 9 8 5 6 5 6 6 7 8 9 10 10 10 11 12 13 13 14 14 15 15 16 15 15 15 15 14 12 11 11 12 13 13 12 11 10 9
15 12 8 17 17 2 -6 -3 8 15 20 2 0 17 23 30 12 9 6 7 8 8 8 9 8 10 11 10 10 10 11 12 12 12 12 13 14 14 14 14 14 13 11 10 11 12 13 13 12 11 11 10 9 9
5 3 8 6 -2 5 9 14 23 18 17 20 19 18 18 16 13 13 11 10 9 9 9 9 9 11 10 11 9 11 11 11 12 13 13 12 13 13 13 12 10 11 10 12 12 13 13 11 11 11 11 10 8 8
5 7 11 10 9 19 16 12 12 12 11 9 7 10 11 13 12 10 11 10 11 11 10 10 11 12 11 11 11 11 11 13 13 13 13 14 15 14 12 10 11 11 11 12 13 13 11 10 11 10 8 8 10 10
8 7 7 15 14 9 9 9 9 11 8 8 6 7 7 8 9 14 4 11 10 10 10 11 12 11 12 11 10 11 11 12 13 13 14 14 13 12 11 11 11 10 12 13 12 11 11 11 9 9 10 10 11 13
15 17 15 24 12 8 6 9 4 4 8 5 5 6 6 7 11 8 11 11 10 12 11 13 13 12 10 9 9 10 11 11 11 12 13 13 14 13 13 12 11 12 12 12 12 11 9 9 11 10 11 13 13 12
Height
2842 2839 2835 2835 2837 2839 2842 2846 2850 2853 2858 2862 2866 2870 2877 2884 2892 2900 2906 2913 2919 2921 2925 2931 2937 2941 2946 2951 2953 2959 2965 2967 2971 2973 2977 2978 2980 2981 2983 2984 2985 2987 2992 2994 2997 2996 2992 2987 2991 2993 2992 2990 2989 2987
2835 2830 2825 2824 2825 2828 2832 2836 2841 2845 2849 2852 2855 2859 2865 2874 2883 2893 2897 2904 2913 2917 2919 2926 2932 2935 2939 2946 2951 2953 2959 2961 2964 2967 2970 2973 2974 2975 2977 2979 2982 2985 2985 2986 2986 2984 2985 2987 2987 2987 2984 2982 2982 2981
2826 2823 2821 2820 2821 2823 2825 2828 2832 2836 2840 2844 2847 2852 2859 2867 2875 2884 2890 2899 2906 2909 2916 2920 2922 2931 2935 2940 2944 2948 2953 2957 2959 2964 2966 2968 2968 2970 2971 2973 2976 2977 2979 2979 2981 2979 2981 2983 2982 2980 2979 2977 2975 2975
2820 2817 2816 2815 2815 2816 2818 2821 2824 2828 2832 2837 2842 2848 2854 2862 2870 2878 2884 2892 2900 2906 2912 2914 2917 2924 2930 2934 2938 2943 2947 2951 2954 2958 2960 2961 2964 2965 2967 2969 2969 2973 2973 2973 2971 2973 2975 2977 2976 2974 2974 2972 2970 2969
2816 2814 2812 2811 2811 2811 2813 2815 2818 2823 2827 2832 2837 2843 2850 2858 2866 2874 2882 2888 2896 2906 2907 2913 2915 2920 2925 2929 2934 2940 2944 2948 2951 2952 2954 2955 2959 2962 2963 2964 2963 2966 2967 2967 2966 2967 2968 2969 2969 2968 2967 2966 2964 2963
2814 2811 2809 2807 2806 2806 2808 2810 2813 2817 2823 2828 2835 2841 2848 2856 2864 2871 2879 2884 2892 2898 2906 2909 2915 2918 2921 2926 2930 2934 2938 2942 2945 2946 2948 2950 2954 2957 2957 2956 2957 2958 2960 2962 2961 2960 2961 2959 2960 2959 2960 2959 2957 2955
2813 2810 2806 2803 2801 2801 2802 2804 2807 2811 2817 2824 2831 2839 2847 2855 2861 2868 2875 2879 2889 2895 2902 2908 2911 2915 2915 2918 2923 2926 2931 2934 2937 2940 2942 2947 2948 2951 2950 2949 2948 2952 2954 2956 2954 2954 2953 2951 2951 2952 2952 2952 2950 2949
2814 2810 2804 2802 2799 2797 2797 2799 2802 2806 2812 2820 2829 2838 2847 2855 2863 2870 2873 2878 2886 2893 2900 2903 2906 2909 2910 2913 2917 2921 2926 2929 2930 2934 2938 2939 2945 2946 2944 2940 2941 2944 2947 2947 2946 2945 2943 2944 2944 2945 2946 2945 2944 2943
2817 2814 2810 2806 2800 2797 2795 2796 2800 2804 2810 2819 2829 2839 2848 2856 2862 2867 2876 2880 2887 2894 2894 2898 2902 2905 2906 2909 2913 2918 2921 2925 2927 2929 2932 2937 2933 2937 2933 2935 2937 2939 2939 2939 2939 2935 2935 2936 2937 2938 2937 2938 2937 2936
2821 2819 2816 2812 2807 2801 2800 2800 2801 2804 2811 2820 2832 2842 2850 2858 2864 2872 2879 2883 2888 2889 2892 2895 2899 2901 2905 2904 2909 2915 2917 2921 2924 2927 2930 2928 2929 2930 2931 2932 2932 2932 2930 2931 2931 2928 2928 2928 2930 2929 2929 2929 2929 2928
2826 2824 2823 2819 2817 2815 2812 2812 2812 2816 2821 2830 2835 2840 2852 2861 2865 2870 2875 2882 2885 2887 2888 2891 2894 2897 2899 2902 2905 2911 2914 2918 2921 2922 2924 2921 2920 2921 2922 2923 2922 2923 2923 2922 2923 2923 2923 2923 2923 2923 2922 2922 2922 2921
2831 2830 2828 2827 2827 2825 2825 2826 2827 2831 2833 2838 2842 2851 2859 2865 2870 2874 2877 2880 2881 2883 2884 2886 2889 2892 2895 2898 2901 2907 2910 2914 2914 2916 2918 2915 2914 2915 2916 2916 2917 2918 2917 2916 2915 2915 2916 2917 2917 2917 2916 2916 2915 2914
2836 2836 2835 2834 2835 2834 2834 2836 2839 2844 2847 2850 2855 2860 2865 2867 2868 2870 2873 2876 2877 2877 2881 2884 2888 2888 2891 2896 2895 2900 2904 2907 2910 2911 2909 2909 2910 2911 2912 2912 2913 2913 2913 2912 2912 2911 2911 2911 2911 2911 2911 2910 2909 2908
2840 2841 2841 2841 2841 2842 2845 2848 2851 2853 2856 2857 2859 2861 2863 2864 2865 2867 2870 2873 2876 2877 2880 2883 2884 2887 2891 2893 2894 2897 2902 2904 2905 2905 2905 2905 2906 2907 2909 2910 2910 2911 2911 2911 2910 2910 2910 2909 2909 2909 2908 2908 2908 2907
2844 2846 2847 2848 2848 2848 2851 2852 2855 2858 2857 2858 2860 2861 2861 2863 2864 2867 2870 2873 2875 2878 2881 2884 2888 2889 2891 2894 2896 2898 2900 2900 2901 2902 2902 2903 2905 2907 2908 2909 2910 2910 2911 2911 2911 2911 2911 2911 2911 2911 2910 2910 2910 2910
2847 2848 2850 2851 2853 2853 2854 2856 2856 2858 2857 2857 2858 2861 2863 2865 2867 2869 2871 2874 2876 2879 2882 2886 2889 2890 2891 2893 2895 2895 2897 2897 2897 2899 2902 2904 2906 2907 2909 2911 2912 2913 2914 2914 2915 2915 2914 2914 2914 2913 2913 2913 2913 2912
2848 2849 2851 2853 2855 2856 2858 2859 2859 2858 2857 2860 2863 2865 2867 2869 2870 2872 2874 2876 2878 2881 2883 2886 2888 2889 2890 2890 2892 2893 2894 2896 2897 2900 2903 2905 2908 2910 2912 2914 2915 2916 2917 2917 2917 2917 2917 2916 2916 2915 2915 2914 2913 2912
2848 2849 2851 2854 2855 2857 2859 2860 2860 2860 2861 2864 2866 2868 2869 2870 2871 2873 2875 2877 2879 2881 2883 2885 2886 2887 2888 2889 2890 2892 2894 2896 2900 2903 2906 2909 2912 2914 2915 2916 2917 2918 2919 2919 2919 2918 2917 2917 2917 2916 2915 2914 2913 2911
2849 2850 2852 2853 2855 2858 2860 2861 2862 2863 2866 2868 2868 2869 2869 2870 2870 2871 2873 2874 2877 2879 2882 2884 2886 2886 2888 2889 2892 2894 2897 2902 2905 2907 2910 2912 2914 2916 2917 2918 2919 2919 2919 2919 2918 2918 2917 2916 2916 2914 2913 2911 2909 2908
2849 2851 2852 2854 2857 2859 2861 2864 2864 2865 2868 2870 2870 2868 2867 2866 2866 2868 2870 2873 2875 2877 2880 2882 2885 2889 2891 2895 2899 2902 2905 2908 2911 2913 2914 2915 2917 2918 2919 2919 2920 2920 2919 2919 2918 2917 2916 2914 2913 2911 2909 2908 2906 2904
2846 2848 2851 2855 2857 2861 2863 2865 2866 2869 2870 2871 2871 2868 2865 2864 2863 2865 2870 2874 2878 2878 2882 2888 2892 2895 2899 2902 2905 2908 2910 2912 2914 2916 2917 2918 2919 2919 2919 2919 2919 2919 2918 2917 2916 2914 2913 2911 2909 2907 2905 2904 2902 2901
2844 2846 2849 2854 2858 2862 2866 2868 2870 2871 2873 2876 2876 2875 2876 2875 2873 2874 2877 2878 2881 2888 2892 2896 2900 2903 2906 2907 2910 2912 2914 2916 2917 2918 2919 2919 2919 2919 2919 2918 2917 2916 2915 2914 2912 2910 2908 2906 2905 2903 2901 2900 2898 2896
2848 2850 2852 2855 2861 2865 2871 2871 2873 2874 2879 2882 2883 2884 2886 2885 2886 2890 2889 2889 2892 2898 2902 2905 2907 2909 2912 2913 2915 2916 2917 2917 2918 2918 2919 2919 2918 2918 2917 2915 2914 2912 2910 2908 2907 2905 2903 2901 2900 2898 2896 2894 2892 2891
2854 2855 2857 2859 2862 2865 2870 2872 2875 2877 2882 2885 2887 2890 2892 2892 2895 2896 2895 2898 2900 2903 2906 2909 2911 2913 2915 2916 2917 2917 2918 2918 2918 2917 2917 2915 2914 2913 2912 2910 2909 2907 2906 2904 2902 2900 2898 2897 2895 2893 2892 2890 2889 2888
2858 2860 2862 2862 2865 2869 2872 2875 2878 2881 2886 2889 2891 2893 2897 2898 2901 2902 2903 2905 2906 2908 2910 2913 2914 2915 2916 2917 2917 2917 2916 2916 2915 2915 2913 2912 2911 2910 2908 2907 2905 2904 2902 2900 2898 2897 2895 2893 2892 2890 2889 2888 2887 2886
2859 2861 2863 2864 2867 2871 2874 2879 2882 2886 2890 2892 2895 2897 2900 2902 2904 2907 2908 2909 2911 2912 2914 2915 2916 2916 2917 2917 2916 2916 2915 2915 2913 2912 2911 2909 2908 2906 2904 2903 2901 2899 2897 2896 2895 2893 2892 2891 2890 2888 2887 2886 2884 2883
2860 2863 2865 2867 2870 2874 2879 2883 2887 2890 2893 2894 2897 2899 2901 2902 2904 2907 2909 2911 2913 2914 2915 2916 2916 2917 2917 2916 2916 2915 2913 2912 2911 2910 2908 2906 2904 2902 2901 2899 2897 2896 2894 2893 2892 2891 2890 2889 2887 2886 2884 2883 2881 2880
2865 2868 2871 2875 2877 2881 2883 2887 2891 2893 2894 2896 2899 2900 2901 2902 2904 2907 2910 2912 2914 2915 2916 2916 2917 2917 2916 2915 2914 2913 2912 2910 2909 2907 2905 2903 2901 2899 2898 2896 2895 2893 2892 2891 2890 2888 2887 2886 2884 2883 2881 2880 2878 2876
2869 2873 2877 2879 2882 2885 2888 2891 2892 2894 2896 2898 2900 2901 2902 2904 2907 2909 2911 2913 2915 2915 2916 2916 2916 2915 2915 2913 2912 2911 2909 2907 2906 2904 2902 2901 2899 2898 2896 2894 2893 2891 2890 2888 2887 2885 2884 2882 2881 2879 2878 2876 2874 2872
2874 2877 2880 2883 2886 2888 2891 2893 2895 2897 2899 2901 2903 2904 2905 2907 2909 2911 2913 2914 2915 2915 2916 2915 2915 2914 2912 2911 2910 2908 2907 2905 2903 2902 2900 2898 2897 2895 2894 2892 2891 2889 2887 2886 2884 2882 2881 2879 2878 2876 2874 2872 2869 2867
2877 2880 2884 2886 2889 2891 2894 2896 2899 2901 2903 2904 2906 2908 2910 2911 2912 2913 2914 2915 2915 2915 2915 2914 2913 2912 2911 2909 2908 2906 2905 2903 2901 2900 2898 2896 2894 2893 2891 2890 2888 2886 2884 2883 2881 2879 2877 2876 2874 2872 2870 2867 2864 2861
2881 2884 2887 2889 2892 2895 2897 2900 2902 2904 2905 2907 2909 2910 2911 2912 2913 2914 2914 2914 2914 2913 2913 2912 2911 2910 2908 2907 2906 2904 2903 2901 2899 2898 2896 2894 2892 2890 2889 2887 2885 2883 2881 2880 2878 2876 2874 2872 2870 2868 2865 2862 2859 2856
2883 2886 2889 2891 2894 2897 2900 2902 2904 2906 2908 2909 2910 2911 2912 2913 2913 2914 2913 2912 2912 2911 2910 2909 2908 2907 2906 2905 2904 2902 2901 2899 2897 2895 2893 2891 2890 2888 2886 2884 2882 2880 2878 2876 2874 2872 2870 2868 2866 2863 2860 2857 2854 2850